• In Russia
  • List of Countries
  • For 7 days
  • Water Temperature
  • Satellite Maps
  • Weather Map
  • Weather Widgets
  • user-avatar
    Login

    Hourly Weather Dahab

    Today, 19 January, Saturday

    Time Temperature Precipitation Wind Pressure Humidity
    00:00 +11°C° 0 mm 3 mps 716 mmHg 42%
    01:00 +11°C° 0 mm 3 mps 716 mmHg 42%
    02:00 +11°C° 0 mm 3 mps 715 mmHg 42%
    03:00 +10°C° 0 mm 3 mps 715 mmHg 42%
    04:00 +10°C° 0 mm 3 mps 715 mmHg 43%
    05:00 +10°C° 0 mm 2 mps 715 mmHg 43%
    06:00 +12°C° 0 mm 2 mps 716 mmHg 39%
    07:00 +13°C° 0 mm 2 mps 716 mmHg 36%
    08:00 +14°C° 0 mm 2 mps 716 mmHg 33%
    09:00 +15°C° 0 mm 2 mps 716 mmHg 31%
    10:00 +16°C° 0 mm 2 mps 716 mmHg 30%
    11:00 +18°C° 0 mm 2 mps 716 mmHg 28%
    12:00 +18°C° 0 mm 2 mps 716 mmHg 27%
    13:00 +19°C° 0 mm 2 mps 716 mmHg 26%
    14:00 +19°C° 0 mm 2 mps 715 mmHg 25%
    15:00 +19°C° 0 mm 2 mps 715 mmHg 27%
    16:00 +18°C° 0 mm 2 mps 715 mmHg 28%
    17:00 +19°C° 0 mm 1 mps 715 mmHg 30%
    18:00 +18°C° 0 mm 1 mps 715 mmHg 31%
    19:00 +16°C° 0 mm 1 mps 715 mmHg 33%
    20:00 +15°C° 0 mm 1 mps 715 mmHg 34%
    21:00 +15°C° 0 mm 1 mps 715 mmHg 32%
    22:00 +14°C° 0 mm 1 mps 716 mmHg 31%
    23:00 +14°C° 0 mm 1 mps 716 mmHg 29%

    Tomorrow, 20 January, Sunday

    Time Temperature Precipitation Wind Pressure Humidity
    00:00 +14°C° 0 mm 1 mps 716 mmHg 29%
    01:00 +14°C° 0 mm 1 mps 715 mmHg 28%
    02:00 +13°C° 0 mm 2 mps 715 mmHg 27%
    03:00 +13°C° 0 mm 2 mps 715 mmHg 28%
    04:00 +13°C° 0 mm 1 mps 715 mmHg 28%
    05:00 +12°C° 0 mm 1 mps 714 mmHg 28%
    06:00 +13°C° 0 mm 1 mps 715 mmHg 27%
    07:00 +14°C° 0 mm 1 mps 715 mmHg 25%
    08:00 +15°C° 0 mm 1 mps 716 mmHg 24%
    09:00 +18°C° 0 mm 1 mps 716 mmHg 23%
    10:00 +19°C° 0 mm 1 mps 716 mmHg 21%
    11:00 +20°C° 0 mm 1 mps 716 mmHg 20%
    12:00 +20°C° 0 mm 2 mps 715 mmHg 20%
    13:00 +20°C° 0 mm 2 mps 715 mmHg 19%
    14:00 +21°C° 0 mm 2 mps 714 mmHg 19%
    15:00 +20°C° 0 mm 2 mps 714 mmHg 21%
    16:00 +20°C° 0 mm 2 mps 714 mmHg 23%
    17:00 +20°C° 0 mm 1 mps 714 mmHg 25%
    18:00 +19°C° 0 mm 1 mps 714 mmHg 26%
    19:00 +18°C° 0 mm 1 mps 715 mmHg 27%
    20:00 +18°C° 0 mm 1 mps 715 mmHg 28%
    21:00 +18°C° 0 mm 1 mps 715 mmHg 26%
    22:00 +18°C° 0 mm 1 mps 715 mmHg 24%
    23:00 +18°C° 0 mm 1 mps 715 mmHg 22%

    Day after tomorrow, 21 January, Monday

    Time Temperature Precipitation Wind Pressure Humidity
    00:00 +18°C° 0 mm 1 mps 715 mmHg 21%
    01:00 +18°C° 0 mm 1 mps 715 mmHg 21%
    02:00 +16°C° 0 mm 2 mps 714 mmHg 21%
    03:00 +16°C° 0 mm 1 mps 714 mmHg 20%
    04:00 +16°C° 0 mm 1 mps 714 mmHg 19%
    05:00 +16°C° 0 mm 1 mps 713 mmHg 19%
    06:00 +16°C° 0 mm 1 mps 714 mmHg 18%
    07:00 +18°C° 0 mm 1 mps 714 mmHg 16%
    08:00 +19°C° 0 mm 1 mps 715 mmHg 15%
    09:00 +20°C° 0 mm 1 mps 715 mmHg 16%
    10:00 +21°C° 0 mm 1 mps 715 mmHg 17%
    11:00 +22°C° 0 mm 1 mps 716 mmHg 18%
    12:00 +23°C° 0 mm 2 mps 715 mmHg 18%
    13:00 +23°C° 0 mm 2 mps 715 mmHg 19%
    14:00 +24°C° 0 mm 2 mps 714 mmHg 19%
    15:00 +23°C° 0 mm 2 mps 714 mmHg 21%
    16:00 +21°C° 0 mm 2 mps 714 mmHg 23%
    17:00 +21°C° 0 mm 1 mps 714 mmHg 25%
    18:00 +20°C° 0 mm 1 mps 714 mmHg 27%
    19:00 +19°C° 0 mm 1 mps 714 mmHg 29%
    20:00 +18°C° 0 mm 1 mps 715 mmHg 30%
    21:00 +18°C° 0 mm 1 mps 715 mmHg 30%
    22:00 +16°C° 0 mm 1 mps 715 mmHg 30%
    23:00 +16°C° 0 mm 1 mps 714 mmHg 30%

    22 January, Tuesday

    Time Temperature Precipitation Wind Pressure Humidity
    00:00 +16°C° 0 mm 1 mps 714 mmHg 31%
    01:00 +15°C° 0 mm 2 mps 714 mmHg 32%
    02:00 +15°C° 0 mm 2 mps 714 mmHg 33%
    03:00 +14°C° 0 mm 2 mps 714 mmHg 34%
    04:00 +14°C° 0 mm 2 mps 713 mmHg 34%
    05:00 +14°C° 0 mm 1 mps 713 mmHg 35%
    06:00 +15°C° 0 mm 1 mps 714 mmHg 32%
    07:00 +16°C° 0 mm 1 mps 714 mmHg 29%
    08:00 +18°C° 0 mm 1 mps 715 mmHg 26%
    09:00 +20°C° 0 mm 1 mps 715 mmHg 23%
    10:00 +21°C° 0 mm 1 mps 715 mmHg 20%
    11:00 +23°C° 0 mm 2 mps 715 mmHg 18%
    12:00 +23°C° 0 mm 2 mps 714 mmHg 17%
    13:00 +24°C° 0 mm 2 mps 714 mmHg 17%
    14:00 +24°C° 0 mm 3 mps 713 mmHg 16%
    15:00 +23°C° 0 mm 2 mps 713 mmHg 18%
    16:00 +21°C° 0 mm 2 mps 713 mmHg 20%
    17:00 +20°C° 0 mm 2 mps 713 mmHg 21%
    18:00 +20°C° 0 mm 1 mps 713 mmHg 23%
    19:00 +19°C° 0 mm 1 mps 713 mmHg 25%
    20:00 +18°C° 0 mm 1 mps 713 mmHg 27%
    21:00 +18°C° 0 mm 1 mps 713 mmHg 27%
    22:00 +16°C° 0 mm 1 mps 713 mmHg 26%
    23:00 +16°C° 0 mm 1 mps 713 mmHg 26%

    23 January, Wednesday

    Time Temperature Precipitation Wind Pressure Humidity
    00:00 +16°C° 0 mm 1 mps 713 mmHg 25%
    01:00 +15°C° 0 mm 1 mps 712 mmHg 24%
    02:00 +15°C° 0 mm 1 mps 712 mmHg 24%
    03:00 +15°C° 0 mm 1 mps 712 mmHg 24%
    04:00 +14°C° 0 mm 1 mps 712 mmHg 24%
    05:00 +14°C° 0 mm 1 mps 712 mmHg 24%
    06:00 +15°C° 0 mm 1 mps 712 mmHg 23%
    07:00 +16°C° 0 mm 1 mps 713 mmHg 21%
    08:00 +18°C° 0 mm 1 mps 713 mmHg 20%
    09:00 +20°C° 0 mm 1 mps 713 mmHg 19%
    10:00 +20°C° 0 mm 2 mps 713 mmHg 18%
    11:00 +23°C° 0 mm 2 mps 713 mmHg 17%
    12:00 +23°C° 0 mm 2 mps 712 mmHg 17%
    13:00 +22°C° 0 mm 3 mps 712 mmHg 18%
    14:00 +24°C° 0 mm 3 mps 711 mmHg 18%
    15:00 +22°C° 0 mm 3 mps 711 mmHg 20%
    16:00 +21°C° 0 mm 2 mps 711 mmHg 23%
    17:00 +20°C° 0 mm 2 mps 711 mmHg 26%
    18:00 +20°C° 0 mm 2 mps 711 mmHg 27%
    19:00 +20°C° 0 mm 1 mps 711 mmHg 27%
    20:00 +19°C° 0 mm 1 mps 711 mmHg 28%
    21:00 +19°C° 0 mm 1 mps 711 mmHg 25%
    22:00 +18°C° 0 mm 1 mps 711 mmHg 23%
    23:00 +18°C° 0 mm 1 mps 711 mmHg 20%

    24 January, Thursday

    Time Temperature Precipitation Wind Pressure Humidity
    00:00 +18°C° 0 mm 1 mps 711 mmHg 21%
    01:00 +16°C° 0 mm 1 mps 711 mmHg 21%
    02:00 +16°C° 0 mm 1 mps 711 mmHg 21%
    03:00 +16°C° 0 mm 1 mps 711 mmHg 24%
    04:00 +16°C° 0 mm 1 mps 710 mmHg 26%
    05:00 +15°C° 0 mm 1 mps 710 mmHg 29%
    06:00 +16°C° 0 mm 1 mps 711 mmHg 30%
    07:00 +18°C° 0 mm 1 mps 711 mmHg 30%
    08:00 +19°C° 0 mm 1 mps 712 mmHg 31%
    09:00 +19°C° 0 mm 2 mps 712 mmHg 34%
    10:00 +21°C° 0 mm 3 mps 712 mmHg 37%
    11:00 +22°C° 0 mm 3 mps 712 mmHg 39%
    12:00 +22°C° 0 mm 4 mps 712 mmHg 42%
    13:00 +23°C° 0 mm 4 mps 712 mmHg 45%
    14:00 +23°C° 0 mm 4 mps 711 mmHg 48%
    15:00 +22°C° 0 mm 4 mps 711 mmHg 54%
    16:00 +22°C° 0 mm 3 mps 712 mmHg 59%
    17:00 +21°C° 0 mm 3 mps 712 mmHg 65%
    18:00 +20°C° 0 mm 2 mps 712 mmHg 70%
    19:00 +20°C° 0 mm 1 mps 712 mmHg 76%
    20:00 +19°C° 0 mm 1 mps 713 mmHg 82%
    21:00 +19°C° 0 mm 1 mps 713 mmHg 81%
    22:00 +18°C° 0 mm 1 mps 713 mmHg 81%
    23:00 +18°C° 0 mm 1 mps 713 mmHg 80%
    Show more